Voltar ao catálogo

CZ-6A DEB

AtivoSSO
NORAD 54538·DEBRIS·🇨🇳 China

Lançado Nov 11, 2022 de Taiyuan Satellite Launch Center

Loading…

Próximas Passagens (próximas 24 horas)

TLE

AtualizadoSource: Space-Track

Época: Sep 14, 2026, 07:11 UTC

1 54538U 22151KN  26257.29983686 -.00000037  00000-0  38310-5 0  9990
2 54538  98.8750 218.2329 0120185 189.3383 170.5544 13.95834180195286

Acompanhe CZ-6A DEB em tempo real com AllMySat

Download on the App Store